Simultaneous Nadir Overpasses (SNOs) Predictions

Prediction of SNOs between GOES-16 and TERRA Satellite Orbit:

Table of predicted SNOs for the next 14.0 days since TLE Epoch: 9/24/2022
Index Date Time (GOES-16) GOES-16 Lat,Lon TERRA Lat,Lon Distance(km) Time Diff (sec)
1 09/26/2022 03:08:59 0.05, -75.20 0.50, -73.20 227.85 80
2 09/26/2022 15:27:33 -0.05, -75.21 0.61, -78.35 356.54 80
3 09/28/2022 15:15:16 -0.05, -75.23 -0.01, -75.39 18.23 80
4 09/30/2022 15:05:39 -0.05, -75.24 -0.64, -72.43 320.23 80
5 10/01/2022 03:27:01 0.05, -75.23 -0.44, -77.62 271.39 80
6 10/03/2022 03:12:04 0.04, -75.25 0.19, -74.66 67.30 80
7 10/05/2022 02:59:47 0.04, -75.27 0.78, -71.69 406.43 80
8 10/05/2022 15:23:40 -0.04, -75.29 0.32, -76.84 177.61 80
9 10/07/2022 15:08:43 -0.03, -75.32 -0.34, -73.89 162.83 80
10 10/08/2022 03:32:46 0.03, -75.31 -0.73, -79.08 427.98 80
